Total_Precipitation_Accumulation
0.00 0.00 0.00 0.00 0.00 0.00 0.00 0.00 0.00 0.00 0.00 0.00 0.00 0.00 0.00 0.00 0.00 0.00 0.00 0.00 0.00 0.00 0.00 0.00 0.01 0.01 0.04 0.07 0.11 0.13 0.14 0.12 0.10 0.09 0.09 0.09 0.09 0.11 0.12 0.14 0.15 0.16 0.15
0.00 0.00 0.00 0.00 0.00 0.00 0.00 0.00 0.00 0.00 0.00 0.00 0.00 0.00 0.00 0.00 0.00 0.00 0.00 0.00 0.00 0.00 0.00 0.00 0.01 0.01 0.02 0.04 0.07 0.12 0.11 0.09 0.08 0.08 0.08 0.09 0.09 0.10 0.12 0.13 0.15 0.16 0.18
0.00 0.00 0.00 0.00 0.00 0.00 0.00 0.00 0.00 0.00 0.00 0.00 0.00 0.00 0.00 0.00 0.00 0.00 0.00 0.00 0.00 0.00 0.00 0.00 0.01 0.02 0.01 0.02 0.04 0.07 0.10 0.11 0.11 0.12 0.13 0.13 0.13 0.13 0.13 0.15 0.16 0.16 0.17
0.00 0.00 0.00 0.00 0.00 0.00 0.00 0.00 0.00 0.00 0.00 0.00 0.00 0.00 0.00 0.00 0.00 0.00 0.00 0.00 0.00 0.00 0.00 0.00 0.01 0.03 0.02 0.01 0.01 0.02 0.06 0.09 0.10 0.12 0.13 0.14 0.16 0.17 0.19 0.19 0.19 0.20 0.21
0.00 0.00 0.00 0.00 0.00 0.00 0.00 0.00 0.00 0.00 0.00 0.00 0.00 0.00 0.00 0.00 0.00 0.00 0.00 0.00 0.00 0.00 0.00 0.00 0.00 0.00 0.01 0.00 0.01 0.03 0.06 0.09 0.10 0.10 0.10 0.11 0.13 0.16 0.20 0.24 0.26 0.27 0.28
0.04 0.00 0.00 0.00 0.00 0.00 0.00 0.00 0.00 0.00 0.00 0.00 0.00 0.00 0.00 0.00 0.00 0.00 0.00 0.00 0.00 0.00 0.00 0.00 0.00 0.00 0.00 0.01 0.02 0.03 0.06 0.08 0.06 0.07 0.09 0.10 0.10 0.14 0.20 0.24 0.26 0.27 0.28
0.13 0.06 0.01 0.00 0.00 0.00 0.00 0.00 0.00 0.00 0.00 0.00 0.00 0.00 0.00 0.00 0.00 0.00 0.00 0.00 0.00 0.00 0.00 0.00 0.00 0.00 0.00 0.01 0.02 0.01 0.02 0.08 0.11 0.07 0.11 0.14 0.15 0.16 0.18 0.20 0.23 0.30 0.36
0.50 0.22 0.07 0.09 0.04 0.01 0.01 0.00 0.01 0.01 0.01 0.01 0.02 0.04 0.02 0.00 0.00 0.00 0.00 0.00 0.00 0.00 0.00 0.00 0.00 0.00 0.00 0.00 0.00 0.02 0.04 0.08 0.24 0.20 0.14 0.17 0.19 0.19 0.23 0.25 0.28 0.31 0.37
0.68 0.47 0.37 0.27 0.20 0.12 0.17 0.11 0.19 0.18 0.13 0.12 0.09 0.14 0.10 0.05 0.02 0.00 0.00 0.00 0.00 0.00 0.00 0.00 0.00 0.00 0.00 0.02 0.06 0.10 0.12 0.15 0.25 0.42 0.29 0.25 0.30 0.30 0.31 0.33 0.36 0.43 0.51
0.58 0.73 0.62 0.45 0.37 0.33 0.28 0.47 0.38 0.37 0.36 0.23 0.21 0.11 0.11 0.09 0.13 0.09 0.04 0.05 0.02 0.01 0.00 0.00 0.00 0.02 0.07 0.13 0.21 0.27 0.28 0.31 0.38 0.49 0.66 0.59 0.56 0.56 0.57 0.58 0.63 0.71 0.77
0.40 0.53 0.57 0.50 0.38 0.37 0.36 0.39 0.42 0.34 0.37 0.33 0.30 0.35 0.27 0.20 0.15 0.20 0.17 0.08 0.06 0.03 0.02 0.03 0.05 0.08 0.13 0.21 0.30 0.36 0.40 0.44 0.49 0.58 0.78 0.85 0.75 0.67 0.82 0.96 1.08 1.16 1.22
0.24 0.28 0.32 0.34 0.45 0.32 0.33 0.39 0.46 0.43 0.36 0.38 0.33 0.35 0.47 0.47 0.32 0.29 0.25 0.15 0.12 0.07 0.05 0.04 0.06 0.08 0.09 0.16 0.24 0.34 0.41 0.47 0.64 0.75 0.87 1.02 1.05 1.08 1.16 1.35 1.52 1.63 1.70
0.13 0.18 0.27 0.29 0.32 0.33 0.32 0.29 0.30 0.30 0.31 0.37 0.41 0.38 0.37 0.37 0.35 0.38 0.42 0.33 0.27 0.19 0.19 0.16 0.17 0.18 0.19 0.23 0.34 0.54 0.60 0.65 0.71 0.75 0.82 1.01 1.06 1.04 0.99 0.95 1.07 1.17 1.30
0.16 0.18 0.20 0.25 0.28 0.29 0.30 0.27 0.26 0.28 0.29 0.35 0.41 0.40 0.38 0.32 0.35 0.36 0.39 0.43 0.39 0.27 0.24 0.22 0.21 0.31 0.45 0.62 0.75 0.79 0.67 0.69 0.70 0.72 0.67 0.61 0.57 0.51 0.42 0.42 0.50 0.57 0.65
0.10 0.13 0.16 0.15 0.19 0.21 0.22 0.24 0.26 0.27 0.29 0.32 0.35 0.39 0.42 0.40 0.43 0.43 0.47 0.60 0.81 0.77 0.57 0.53 0.60 0.64 0.69 0.67 0.64 0.60 0.55 0.57 0.44 0.30 0.22 0.17 0.14 0.17 0.22 0.25 0.28 0.37 0.50
0.07 0.10 0.10 0.11 0.10 0.10 0.10 0.10 0.12 0.13 0.20 0.24 0.28 0.34 0.36 0.37 0.41 0.43 0.48 0.55 0.69 0.91 0.84 0.58 0.59 0.66 0.73 0.69 0.61 0.44 0.31 0.30 0.22 0.18 0.16 0.14 0.12 0.15 0.16 0.19 0.23 0.29 0.36
0.04 0.03 0.03 0.04 0.04 0.03 0.02 0.02 0.03 0.04 0.07 0.11 0.16 0.20 0.21 0.22 0.28 0.34 0.42 0.48 0.55 0.71 0.80 0.56 0.48 0.40 0.31 0.18 0.11 0.15 0.13 0.11 0.09 0.14 0.15 0.16 0.16 0.17 0.17 0.18 0.20 0.26 0.31
0.03 0.02 0.01 0.01 0.01 0.01 0.00 0.01 0.01 0.02 0.02 0.03 0.04 0.06 0.10 0.12 0.18 0.26 0.31 0.35 0.41 0.43 0.49 0.35 0.15 0.13 0.12 0.09 0.06 0.08 0.09 0.11 0.11 0.11 0.12 0.12 0.15 0.18 0.19 0.19 0.19 0.21 0.25
0.02 0.02 0.02 0.01 0.01 0.00 0.00 0.00 0.00 0.01 0.03 0.04 0.06 0.09 0.14 0.21 0.27 0.32 0.39 0.41 0.38 0.36 0.38 0.41 0.19 0.10 0.09 0.07 0.08 0.10 0.12 0.12 0.12 0.15 0.18 0.19 0.22 0.22 0.23 0.26 0.31 0.39 0.43
0.02 0.02 0.02 0.01 0.01 0.02 0.03 0.04 0.05 0.08 0.10 0.12 0.15 0.18 0.23 0.26 0.26 0.24 0.23 0.23 0.25 0.26 0.27 0.30 0.31 0.25 0.16 0.14 0.18 0.14 0.12 0.11 0.13 0.16 0.22 0.28 0.36 0.43 0.45 0.48 0.48 0.44 0.40
0.04 0.04 0.03 0.02 0.04 0.08 0.12 0.16 0.19 0.23 0.29 0.34 0.37 0.35 0.31 0.28 0.21 0.13 0.16 0.17 0.23 0.25 0.35 0.52 0.51 0.44 0.41 0.33 0.26 0.26 0.37 0.38 0.39 0.37 0.35 0.36 0.42 0.47 0.44 0.45 0.47 0.45 0.46
0.12 0.10 0.13 0.17 0.18 0.18 0.30 0.24 0.20 0.22 0.25 0.24 0.22 0.21 0.22 0.24 0.19 0.16 0.16 0.18 0.18 0.33 0.50 0.65 0.65 0.55 0.40 0.40 0.42 0.51 0.66 0.78 0.74 0.33 0.29 0.38 0.39 0.43 0.43 0.46 0.50 0.46 0.44
0.56 0.55 0.56 0.41 0.43 0.49 0.54 0.42 0.40 0.41 0.40 0.36 0.33 0.29 0.20 0.14 0.12 0.09 0.06 0.09 0.18 0.35 0.40 0.29 0.24 0.25 0.34 0.31 0.52 0.66 0.62 0.64 0.54 0.34 0.43 0.56 0.47 0.52 0.51 0.52 0.56 0.51 0.51
0.48 0.55 0.89 0.94 0.94 0.91 0.78 0.57 0.38 0.29 0.20 0.16 0.12 0.08 0.04 0.03 0.03 0.04 0.09 0.29 0.26 0.13 0.04 0.06 0.08 0.11 0.24 0.40 0.59 0.84 0.83 0.88 0.68 0.48 0.46 0.59 0.34 0.38 0.39 0.43 0.55 0.41 0.35
0.67 0.62 0.54 0.44 0.36 0.30 0.20 0.14 0.11 0.11 0.09 0.06 0.02 0.01 0.04 0.03 0.02 0.11 0.27 0.32 0.07 0.01 0.02 0.05 0.15 0.18 0.20 0.21 0.28 0.62 0.85 0.83 0.77 0.47 0.38 0.46 0.37 0.36 0.34 0.33 0.43 0.47 0.44
0.54 0.44 0.34 0.23 0.16 0.10 0.07 0.04 0.01 0.02 0.01 0.00 0.02 0.02 0.02 0.03 0.07 0.32 0.19 0.05 0.08 0.04 0.14 0.11 0.03 0.02 0.04 0.11 0.23 0.32 0.72 1.39 0.99 0.83 0.39 0.77 0.59 0.48 0.81 0.37 0.43 0.53 0.45